Oconto, WI

12:18 AM CDT on June 23, 2018 (GMT -0500)
Oconto Municipal

Weather History for KOCQ - May, 2015

Change the Weather History Date:

Sunday, May 24, 2015

  Actual Average Record
Temperature  
Mean Temperature 60 °F -  
Max Temperature 70 °F 69 °F 84 °F (2018)
Min Temperature 50 °F 46 °F 29 °F (2013)
Degree Days  
Heating Degree Days 5    
Growing Degree Days 10 (Base 50)    
Moisture  
Dew Point 52 °F    
Average Humidity 80    
Maximum Humidity 100    
Minimum Humidity 50    
Precipitation  
Precipitation 0.44 in - - ()
Sea Level Pressure  
Sea Level Pressure 30.10 in    
Wind  
Wind Speed 2 mph (SSE)    
Max Wind Speed 13 mph    
Max Gust Speed 22 mph    
Visibility 9 miles    
Events      
Averages and records for this station are not official NWS values.
T = Trace of Precipitation, MM = Missing Value Source: NWS Daily Summary

Daily Weather History Graph

Daily Weather History Graph

Search for Another Location

Airport or City:

Astronomy

May. 24, 2015 Rise Set
Actual Time 5:14 AM CDT 8:23 PM CDT
Civil Twilight 4:39 AM CDT 8:58 PM CDT
Nautical Twilight 3:53 AM CDT 9:44 PM CDT
Astronomical Twilight 2:58 AM CDT 10:39 PM CDT
Moon 11:33 AM CDT (5/24) 12:44 AM CDT (5/24)
Length of Visible Light 16h 19m
Length of Day
15h 08m
Waxing Crescent, 40% of the Moon is Illuminated
May 24
Waxing Crescent
May 25
First Quarter
Jun 2
Full
Jun 9
Last Quarter
Jun 16
New

Hourly Weather History & Observations

Time (CDT) Temp. Dew Point Humidity Pressure Visibility Wind Dir Wind Speed Gust Speed Precip Events Conditions
12:15 AM 56.5 °F 48.2 °F 74% 30.17 in 10.0 mi Calm Calm - N/A   Clear
12:35 AM 55.6 °F 47.5 °F 74% 30.17 in 10.0 mi Calm Calm - N/A   Scattered Clouds
12:55 AM 54.5 °F 47.8 °F 78% 30.17 in 10.0 mi Calm Calm - N/A   Scattered Clouds
1:15 AM 54.5 °F 46.6 °F 75% 30.17 in 10.0 mi Calm Calm - N/A   Scattered Clouds
1:35 AM 53.8 °F 47.1 °F 78% 30.16 in 10.0 mi Calm Calm - N/A   Scattered Clouds
1:55 AM 52.9 °F 47.5 °F 82% 30.16 in 10.0 mi Calm Calm - N/A   Mostly Cloudy
2:15 AM 52.7 °F 46.9 °F 81% 30.16 in 10.0 mi Calm Calm - N/A   Overcast
2:35 AM 52.7 °F 48.0 °F 84% 30.16 in 10.0 mi Calm Calm - N/A   Overcast
2:55 AM 51.8 °F 47.8 °F 86% 30.17 in 10.0 mi Calm Calm - N/A   Scattered Clouds
3:15 AM 50.9 °F 48.2 °F 90% 30.17 in 10.0 mi Calm Calm - N/A   Scattered Clouds
3:35 AM 50.9 °F 48.2 °F 90% 30.17 in 10.0 mi Calm Calm - N/A   Scattered Clouds
3:55 AM 51.1 °F 48.9 °F 92% 30.17 in 10.0 mi Calm Calm - N/A   Mostly Cloudy
4:15 AM 52.5 °F 49.3 °F 89% 30.17 in 10.0 mi Calm Calm - N/A   Overcast
4:35 AM 52.2 °F 50.7 °F 95% 30.17 in 10.0 mi Calm Calm - N/A   Overcast
4:55 AM 52.9 °F 50.2 °F 91% 30.17 in 10.0 mi South 3.5 mph - N/A   Overcast
5:15 AM 56.1 °F 46.8 °F 71% 30.17 in 10.0 mi South 6.9 mph - N/A   Overcast
5:40 AM 55.8 °F 47.3 °F 73% 30.16 in 10.0 mi Calm Calm - N/A   Overcast
5:55 AM 54.5 °F 48.4 °F 80% 30.15 in 10.0 mi Calm Calm - N/A   Scattered Clouds
6:15 AM 53.1 °F 48.6 °F 85% 30.16 in 10.0 mi Calm Calm - N/A   Clear
6:35 AM 54.1 °F 49.1 °F 83% 30.15 in 10.0 mi Calm Calm - N/A   Clear
6:55 AM 57.0 °F 49.5 °F 76% 30.14 in 10.0 mi Calm Calm - N/A   Clear
7:15 AM 58.5 °F 49.1 °F 71% 30.14 in 10.0 mi Calm Calm - N/A   Clear
7:35 AM 60.3 °F 50.4 °F 70% 30.14 in 10.0 mi Calm Calm - N/A   Clear
7:55 AM 61.7 °F 50.2 °F 66% 30.14 in 10.0 mi Calm Calm - N/A   Clear
8:15 AM 63.5 °F 50.9 °F 63% 30.14 in 10.0 mi South 3.5 mph - N/A   Clear
8:35 AM 64.4 °F 49.6 °F 59% 30.13 in 10.0 mi SSE 3.5 mph - N/A   Clear
8:55 AM 65.1 °F 49.1 °F 56% 30.13 in 10.0 mi Calm Calm - N/A   Clear
9:15 AM 65.7 °F 49.8 °F 57% 30.13 in 10.0 mi Calm Calm - N/A   Clear
9:55 AM 67.1 °F 50.4 °F 55% 30.12 in 10.0 mi Calm Calm - N/A   Clear
10:15 AM 68.4 °F 50.5 °F 53% 30.12 in 10.0 mi Calm Calm - N/A   Clear
10:35 AM 69.8 °F 50.5 °F 50% 30.13 in 10.0 mi Calm Calm - N/A   Clear
10:55 AM 68.9 °F 51.6 °F 54% 30.13 in 10.0 mi Calm Calm - N/A   Clear
11:15 AM 69.3 °F 51.1 °F 52% 30.12 in 10.0 mi SE 3.5 mph - N/A   Clear
11:35 AM 69.1 °F 51.1 °F 53% 30.12 in 10.0 mi SSE 3.5 mph - N/A   Clear
11:55 AM 68.9 °F 51.3 °F 53% 30.12 in 10.0 mi SSE 5.8 mph - N/A   Clear
12:15 PM 68.0 °F 51.3 °F 55% 30.12 in 10.0 mi SSE 4.6 mph - N/A   Clear
12:35 PM 69.1 °F 52.5 °F 55% 30.12 in 10.0 mi SSE 4.6 mph - N/A   Clear
12:55 PM 70.3 °F 52.9 °F 54% 30.12 in 10.0 mi South 8.1 mph - N/A   Scattered Clouds
1:15 PM 69.8 °F 53.2 °F 56% 30.12 in 10.0 mi SSW 12.7 mph 21.9 mph N/A   Scattered Clouds
1:35 PM 68.9 °F 54.0 °F 59% 30.12 in 10.0 mi SW 12.7 mph 19.6 mph N/A   Scattered Clouds
1:55 PM 68.0 °F 53.1 °F 59% 30.11 in 10.0 mi SW 11.5 mph 18.4 mph N/A   Scattered Clouds
2:15 PM 67.3 °F 54.3 °F 63% 30.11 in 10.0 mi SSW 8.1 mph - N/A   Overcast
2:35 PM 65.5 °F 55.9 °F 71% 30.10 in 10.0 mi South 5.8 mph - N/A   Overcast
2:55 PM 65.3 °F 53.8 °F 66% 30.10 in 10.0 mi South 9.2 mph 16.1 mph N/A   Overcast
3:15 PM 63.7 °F 54.9 °F 73% 30.10 in 10.0 mi South 10.4 mph 16.1 mph N/A   Overcast
3:35 PM 62.6 °F 55.4 °F 77% 30.09 in 10.0 mi South 8.1 mph - N/A   Overcast
3:55 PM 61.7 °F 56.1 °F 82% 30.08 in 10.0 mi South 8.1 mph - N/A   Overcast
4:15 PM 61.0 °F 56.8 °F 86% 30.07 in 10.0 mi South 4.6 mph - N/A   Overcast
4:55 PM 59.5 °F 58.5 °F 96% 30.06 in 10.0 mi Calm Calm - 0.01 in   Overcast
5:15 PM 59.2 °F 59.2 °F 100% 30.06 in 7.0 mi Calm Calm - 0.01 in   Overcast
5:35 PM 59.0 °F 59.0 °F 100% 30.05 in 10.0 mi SE 3.5 mph - 0.01 in   Overcast
5:55 PM 59.0 °F 59.0 °F 100% 30.05 in 10.0 mi SSE 4.6 mph - 0.02 in   Overcast
6:15 PM 58.5 °F 58.5 °F 100% 30.04 in 7.0 mi SSE 5.8 mph - N/A   Overcast
6:35 PM 58.1 °F 58.1 °F 100% 30.04 in 7.0 mi SE 4.6 mph - 0.01 in   Overcast
7:00 PM 57.4 °F 57.4 °F 100% 30.03 in 7.0 mi SE 5.8 mph - N/A   Overcast
7:15 PM 56.7 °F 56.7 °F 100% 30.03 in 5.0 mi SE 5.8 mph - 0.02 in   Overcast
7:35 PM 55.8 °F 55.8 °F 100% 30.03 in 5.0 mi SE 5.8 mph - 0.06 in   Overcast
7:55 PM 55.2 °F 55.2 °F 100% 30.03 in 5.0 mi SE 4.6 mph - 0.10 in   Overcast
8:15 PM 54.7 °F 54.7 °F 100% 30.02 in 4.0 mi SE 3.5 mph - 0.03 in   Overcast
8:35 PM 54.5 °F 54.5 °F 100% 30.01 in 5.0 mi SE 3.5 mph - 0.06 in   Overcast
8:55 PM 54.5 °F 54.5 °F 100% 30.01 in 5.0 mi East 3.5 mph - 0.09 in   Overcast
9:15 PM 54.5 °F 54.5 °F 100% 30.00 in 3.0 mi East 5.8 mph - 0.08 in   Overcast
9:35 PM 54.5 °F 54.5 °F 100% 29.99 in 4.0 mi East 3.5 mph - 0.11 in   Overcast
9:55 PM 54.3 °F 54.3 °F 100% 29.99 in 4.0 mi ENE 3.5 mph - 0.15 in   Overcast
10:15 PM 54.1 °F 54.1 °F 100% 29.98 in 4.0 mi East 3.5 mph - 0.02 in   Overcast
10:35 PM 54.1 °F 54.1 °F 100% 29.97 in 5.0 mi East 4.6 mph - 0.04 in   Overcast
10:55 PM 54.5 °F 54.5 °F 100% 29.96 in 5.0 mi East 5.8 mph - 0.05 in   Overcast
11:15 PM 54.7 °F 54.7 °F 100% 29.95 in 5.0 mi East 5.8 mph - N/A   Overcast
11:35 PM 55.2 °F 55.2 °F 100% 29.94 in 7.0 mi East 3.5 mph - 0.01 in   Overcast
11:55 PM 55.4 °F 55.4 °F 100% 29.93 in 7.0 mi ENE 5.8 mph - 0.01 in   Overcast